User: anonymous   Login
Location: Palmerston North
(40.3500°S, 175.6170°E)
Time: 15:30:25
(UTC+13:00)
Language:

Meteor 1-27 - Orbit

View from above orbital plane
View from above orbital plane
View from above satellite
View from above satellite

Ground track
Ground track

The orbit data is extracted from the following two-line orbital elements,

1  9903U 77024A   19293.72033966  .00000260  00000-0  14400-3 0  9991
2  9903  81.2533 332.6499 0039018  33.2760 327.0851 14.08263807185495
Epoch (UTC): 20 October 2019 17:17:17
Eccentricity: 0.0039018
inclination: 81.2533°
perigee height: 837 km
apogee height: 893 km
right ascension of ascending node: 332.6499°
argument of perigee: 33.2760°
revolutions per day: 14.08263807
mean anomaly at epoch: 327.0851°
orbit number at epoch: 18549

The dashed part of the orbit path shows where the satellite is in the earth's shadow,  

DLR